When you browse on this site, cookies collect data to enhance your experience and personalize the content and advertising you see.
Visit our Privacy Policy to learn more. By continuing to use the site, you agree to this use of cookies and data.
  • In Spain
  • List of Countries
  • For 7 days
  • Water Temperature
  • Satellite Maps
  • Weather Map
  • Weather Widgets
  • user-avatar
    Login

    Hourly Weather Lezhe

    Today, 22 March, Friday

    Time Temperature Precipitation Wind Pressure Humidity
    00:00 +10°C° 0 mm 4 mps 746 mmHg 62%
    01:00 +8°C° 0 mm 4 mps 746 mmHg 61%
    02:00 +8°C° 0 mm 4 mps 746 mmHg 62%
    03:00 +8°C° 0 mm 4 mps 746 mmHg 62%
    04:00 +7°C° 0 mm 4 mps 746 mmHg 63%
    05:00 +8°C° 0 mm 4 mps 746 mmHg 62%
    06:00 +8°C° 0 mm 4 mps 746 mmHg 61%
    07:00 +10°C° 0 mm 4 mps 746 mmHg 59%
    08:00 +12°C° 0 mm 4 mps 745 mmHg 53%
    09:00 +14°C° 0 mm 4 mps 745 mmHg 47%
    10:00 +17°C° 0 mm 4 mps 745 mmHg 41%
    11:00 +18°C° 0 mm 4 mps 745 mmHg 38%
    12:00 +19°C° 0 mm 4 mps 744 mmHg 36%
    13:00 +20°C° 0 mm 4 mps 744 mmHg 33%
    14:00 +19°C° 0 mm 4 mps 743 mmHg 33%
    15:00 +19°C° 0 mm 4 mps 743 mmHg 33%
    16:00 +19°C° 0 mm 4 mps 743 mmHg 33%
    17:00 +17°C° 0 mm 4 mps 743 mmHg 37%
    18:00 +14°C° 0 mm 3 mps 743 mmHg 41%
    19:00 +13°C° 0 mm 3 mps 743 mmHg 45%
    20:00 +12°C° 0 mm 3 mps 743 mmHg 46%
    21:00 +11°C° 0 mm 3 mps 743 mmHg 48%
    22:00 +11°C° 0 mm 3 mps 744 mmHg 49%
    23:00 +10°C° 0 mm 3 mps 744 mmHg 51%

    Tomorrow, 23 March, Saturday

    Time Temperature Precipitation Wind Pressure Humidity
    00:00 +10°C° 0 mm 3 mps 743 mmHg 52%
    01:00 +10°C° 0 mm 3 mps 743 mmHg 53%
    02:00 +9°C° 0 mm 3 mps 743 mmHg 54%
    03:00 +9°C° 0 mm 3 mps 743 mmHg 54%
    04:00 +9°C° 0 mm 3 mps 743 mmHg 55%
    05:00 +9°C° 0 mm 3 mps 743 mmHg 55%
    06:00 +10°C° 0 mm 3 mps 743 mmHg 55%
    07:00 +10°C° 0 mm 3 mps 743 mmHg 55%
    08:00 +12°C° 0 mm 3 mps 743 mmHg 49%
    09:00 +14°C° 0 mm 3 mps 742 mmHg 44%
    10:00 +18°C° 0 mm 3 mps 742 mmHg 38%
    11:00 +19°C° 0 mm 3 mps 742 mmHg 36%
    12:00 +20°C° 0 mm 3 mps 742 mmHg 34%
    13:00 +21°C° 0 mm 3 mps 742 mmHg 32%
    14:00 +21°C° 0 mm 3 mps 741 mmHg 34%
    15:00 +20°C° 0 mm 3 mps 741 mmHg 36%
    16:00 +20°C° 0 mm 4 mps 741 mmHg 38%
    17:00 +18°C° 0 mm 3 mps 741 mmHg 43%
    18:00 +17°C° 0 mm 3 mps 741 mmHg 49%
    19:00 +14°C° 0 mm 3 mps 741 mmHg 55%
    20:00 +13°C° 0 mm 3 mps 741 mmHg 57%
    21:00 +13°C° 0 mm 3 mps 742 mmHg 58%
    22:00 +12°C° 0 mm 3 mps 742 mmHg 60%
    23:00 +12°C° 0 mm 3 mps 742 mmHg 63%

    Day after tomorrow, 24 March, Sunday

    Time Temperature Precipitation Wind Pressure Humidity
    00:00 +11°C° 0 mm 3 mps 742 mmHg 66%
    01:00 +11°C° 0 mm 3 mps 742 mmHg 69%
    02:00 +11°C° 0 mm 3 mps 742 mmHg 70%
    03:00 +10°C° 0 mm 3 mps 742 mmHg 72%
    04:00 +10°C° 0 mm 3 mps 741 mmHg 73%
    05:00 +10°C° 0 mm 3 mps 742 mmHg 71%
    06:00 +11°C° 0 mm 3 mps 742 mmHg 69%
    07:00 +11°C° 0 mm 3 mps 742 mmHg 67%
    08:00 +13°C° 0 mm 3 mps 742 mmHg 57%
    09:00 +16°C° 0 mm 3 mps 742 mmHg 47%
    10:00 +19°C° 0 mm 2 mps 742 mmHg 37%
    11:00 +20°C° 0 mm 2 mps 741 mmHg 34%
    12:00 +20°C° 0 mm 2 mps 741 mmHg 32%
    13:00 +21°C° 0 mm 2 mps 741 mmHg 29%
    14:00 +21°C° 0 mm 3 mps 740 mmHg 31%
    15:00 +20°C° 0 mm 3 mps 740 mmHg 34%
    16:00 +20°C° 0 mm 3 mps 740 mmHg 36%
    17:00 +18°C° 0 mm 3 mps 740 mmHg 43%
    18:00 +16°C° 0 mm 2 mps 740 mmHg 50%
    19:00 +14°C° 0 mm 2 mps 740 mmHg 57%
    20:00 +14°C° 0 mm 1 mps 740 mmHg 56%
    21:00 +14°C° 0 mm 1 mps 740 mmHg 54%
    22:00 +13°C° 0 mm 1 mps 740 mmHg 53%
    23:00 +13°C° 0 mm 1 mps 740 mmHg 53%

    25 March, Monday

    Time Temperature Precipitation Wind Pressure Humidity
    00:00 +12°C° 0 mm 1 mps 740 mmHg 52%
    01:00 +12°C° 0 mm 1 mps 740 mmHg 52%
    02:00 +12°C° 0 mm 1 mps 740 mmHg 52%
    03:00 +11°C° 0 mm 1 mps 739 mmHg 53%
    04:00 +11°C° 0 mm 1 mps 739 mmHg 53%
    05:00 +12°C° 0 mm 1 mps 739 mmHg 53%
    06:00 +12°C° 0 mm 1 mps 739 mmHg 53%
    07:00 +13°C° 0 mm 1 mps 739 mmHg 53%
    08:00 +15°C° 0 mm 1 mps 739 mmHg 47%
    09:00 +18°C° 0 mm 1 mps 739 mmHg 42%
    10:00 +20°C° 0 mm 1 mps 739 mmHg 36%
    11:00 +20°C° 0 mm 1 mps 738 mmHg 36%
    12:00 +20°C° 0 mm 2 mps 738 mmHg 36%
    13:00 +20°C° 0 mm 2 mps 738 mmHg 36%
    14:00 +20°C° 0 mm 2 mps 737 mmHg 39%
    15:00 +19°C° 0 mm 2 mps 737 mmHg 43%
    16:00 +18°C° 0 mm 2 mps 736 mmHg 46%
    17:00 +17°C° 0 mm 2 mps 736 mmHg 56%
    18:00 +15°C° 0 mm 1 mps 736 mmHg 66%
    19:00 +12°C° 0 mm 0 mps 736 mmHg 76%
    20:00 +13°C° 0 mm 1 mps 736 mmHg 78%
    21:00 +12°C° 0 mm 1 mps 736 mmHg 79%
    22:00 +12°C° 0 mm 1 mps 736 mmHg 81%
    23:00 +11°C° 0 mm 1 mps 736 mmHg 81%

    26 March, Tuesday

    Time Temperature Precipitation Wind Pressure Humidity
    00:00 +11°C° 0 mm 1 mps 736 mmHg 80%
    01:00 +11°C° 0 mm 1 mps 736 mmHg 80%
    02:00 +11°C° 0 mm 1 mps 736 mmHg 79%
    03:00 +10°C° 0 mm 1 mps 736 mmHg 79%
    04:00 +9°C° 0 mm 2 mps 736 mmHg 79%
    05:00 +9°C° 0 mm 3 mps 736 mmHg 74%
    06:00 +10°C° 0 mm 3 mps 736 mmHg 69%
    07:00 +10°C° 0 mm 4 mps 737 mmHg 64%
    08:00 +11°C° 0 mm 4 mps 737 mmHg 58%
    09:00 +12°C° 0 mm 4 mps 737 mmHg 52%
    10:00 +13°C° 0 mm 4 mps 737 mmHg 45%
    11:00 +10°C° 0.2 mm 6 mps 737 mmHg 50%
    12:00 +9°C° 0.2 mm 8 mps 737 mmHg 54%
    13:00 +6°C° 0.2 mm 9 mps 737 mmHg 58%
    14:00 +5°C° 0.9 mm 9 mps 737 mmHg 62%
    15:00 +3°C° 0.9 mm 9 mps 736 mmHg 65%
    16:00 +2°C° 0.9 mm 8 mps 736 mmHg 69%
    17:00 +2°C° 0.1 mm 9 mps 737 mmHg 67%
    18:00 +2°C° 0.1 mm 9 mps 737 mmHg 66%
    19:00 +2°C° 0.1 mm 9 mps 737 mmHg 65%
    20:00 +2°C° 0.1 mm 9 mps 737 mmHg 65%
    21:00 +2°C° 0.1 mm 9 mps 738 mmHg 64%
    22:00 +2°C° 0.1 mm 10 mps 738 mmHg 63%
    23:00 +2°C° 0 mm 9 mps 738 mmHg 62%

    27 March, Wednesday

    Time Temperature Precipitation Wind Pressure Humidity
    00:00 +2°C° 0 mm 9 mps 738 mmHg 60%
    01:00 +3°C° 0 mm 9 mps 738 mmHg 59%
    02:00 +3°C° 0 mm 9 mps 738 mmHg 59%
    03:00 +2°C° 0 mm 8 mps 738 mmHg 59%
    04:00 +2°C° 0 mm 8 mps 739 mmHg 59%
    05:00 +4°C° 0 mm 8 mps 739 mmHg 59%
    06:00 +4°C° 0 mm 7 mps 740 mmHg 60%
    07:00 +4°C° 0 mm 7 mps 740 mmHg 60%
    08:00 +5°C° 0 mm 7 mps 741 mmHg 57%
    09:00 +7°C° 0 mm 8 mps 741 mmHg 54%
    10:00 +9°C° 0 mm 8 mps 741 mmHg 51%
    11:00 +10°C° 0 mm 8 mps 742 mmHg 49%
    12:00 +10°C° 0 mm 8 mps 742 mmHg 47%
    13:00 +11°C° 0 mm 8 mps 742 mmHg 45%
    14:00 +11°C° 0 mm 8 mps 742 mmHg 45%
    15:00 +11°C° 0 mm 8 mps 742 mmHg 45%
    16:00 +10°C° 0 mm 7 mps 742 mmHg 45%
    17:00 +9°C° 0 mm 7 mps 742 mmHg 50%
    18:00 +8°C° 0 mm 6 mps 743 mmHg 54%
    19:00 +6°C° 0 mm 5 mps 743 mmHg 58%
    20:00 +6°C° 0 mm 5 mps 744 mmHg 59%
    21:00 +6°C° 0 mm 5 mps 744 mmHg 60%
    22:00 +5°C° 0 mm 5 mps 744 mmHg 61%
    23:00 +5°C° 0 mm 5 mps 744 mmHg 61%
    Show more